Weather in Kaskara

Russia / Tyumen Oblast     57°10′40″N   65°55′24″E
temp.,
°C
wind,
m/s
gust,
m/s
humid.,
%
clouds,
%
prec.,
mm/h
press.,
hPa
HPBL,
m
8 may, sat
sat823:00+13sw34495 0.0 101851
02:00+11wsw355712 0.0 101964
05:00+10sw345950 0.0 101955
08:00+16sw344410 0.0 1019284
11:00+21sw33318 0.0 10181483
14:00+23sw2224100 0.0 10172533
17:00+23sse2223100 0.0 10162802
20:00+19s2236100 0.0 101627
9 may, sun
sun923:00+16sw1137100 0.0 101611
02:00+14ene224391 0.0 101610
05:00+13ene3450100 0.0 101656
08:00+17e4638100 0.0 1017313
11:00+22e453199 0.0 10171137
14:00+24e662795 0.0 10173087
17:00+22e6631100 0.0 10182352
20:00+19ene4940100 0.0 1019310
10 may, mon
mon1023:00+16e41044100 0.0 1021441
02:00+14ene494799 0.0 1022392
05:00+11ene3856100 0.0 1023270
08:00+14e5843100 0.0 1025651
11:00+17e5631100 0.0 10251490
14:00+18ene4527100 0.0 10251721
17:00+19e4427100 0.0 10251741
20:00+16e2239100 0.0 102511
11 may, tue
tue1123:00+13s2245100 0.0 102611
02:00+11sw11498 0.0 102610
05:00+10s225538 0.0 102610
08:00+14ssw2443100 0.0 1026279
11:00+18wsw3433100 0.0 10261310
14:00+19w4529100 0.0 10251727
17:00+19w4630100 0.0 10241776
20:00+14nnw597464 0.0 1025495
12 may, wed
wed1223:00+10nnw4108049 0.0 1026399
02:00+9nnw3985100 0.0 1026326
05:00+7nnw41082100 0.0 1028387
08:00+11n5946100 0.0 1028666
11:00+14nnw463615 0.0 10281516
14:00+14nw654399 0.0 10281126
17:00+14n4545100 0.0 10281203
20:00+13n3554100 0.0 1028242